Location: Unspecified
(0.0000°N, 0.0000°E)
Time: 06:48:10
(UTC+01:00)

Haruka - Visible Passes

Search period start: 22 January 2017 00:00
Search period end: 01 February 2017 00:00
Orbit: 538 x 21221 km, 31.3° (Epoch: 20 January)

Date Brightness Start Highest point End Pass type
(mag) Time Alt. Az. Time Alt. Az. Time Alt. Az.
22 Jan 7.7 06:16:28 10° W 10:52:06 46° S 11:08:18 10° E visible
23 Jan 7.6 00:55:03 69° E 00:55:03 69° E 05:09:19 10° SE visible
24 Jan 8.3 01:59:20 85° W 02:03:22 86° SW 06:30:51 10° SE visible
25 Jan 8.4 03:03:34 59° W 03:36:38 68° SW 07:46:57 10° ESE visible
25 Jan 6.5 21:04:25 10° N 21:51:43 12° E 22:03:55 10° E visible
26 Jan 8.7 04:07:46 36° W 05:17:59 51° SW 08:59:44 10° ESE visible
26 Jan 6.6 22:09:54 10° NNW 22:55:53 32° E 02:02:36 10° ESE visible
27 Jan 8.2 05:11:56 16° W 09:46:58 46° S 10:10:15 10° ESE visible
27 Jan 7.0 23:16:25 10° NW 00:00:01 54° E 03:56:18 10° SE visible
28 Jan 7.4 06:47:03 10° WSW 11:06:17 53° SSE 11:19:08 10° E visible
29 Jan 7.5 01:04:05 79° ESE 01:04:05 79° ESE 05:25:14 10° SE visible
30 Jan 8.4 02:08:06 73° WSW 02:19:10 75° SW 06:45:01 10° ESE visible
30 Jan 6.4 20:09:18 10° NNE 20:15:00 14° NE 20:16:47 13° NE visible
31 Jan 8.5 03:12:05 48° W 03:57:44 59° SW 07:59:53 10° ESE visible
31 Jan 6.6 21:13:11 10° NNW 22:00:04 20° E 23:24:45 10° ESE visible
31 Jan 6.6 21:13:11 10° NNW 22:00:03 20° E 23:24:45 10° ESE visible
